Regional Weather Roundup
Issued by NWS

Home | Current Version | Previous Version | Graphics & Text | Print | Product List | Glossary On
Versions: 1 2 3 4 5 6 7 8 9 10 11 12 13 14 15 16 17 18 19 20 21 22 23 24 25 26 27 28 29 30 31 32 33 34 35 36 37 38 39 40 41 42 43 44 45 46 47 48 49 50
189
ASUS43 KFSD 141010
RWRSD

WEATHER ROUNDUP FOR SOUTH DAKOTA
NATIONAL WEATHER SERVICE SIOUX FALLS SD
400 AM CST SUN FEB 14 2016

NOTE: "FAIR" INDICATES FEW OR NO CLOUDS BELOW 12,000 FEET WITH NO
SIGNIFICANT WEATHER AND/OR OBSTRUCTIONS TO VISIBILITY.


SDZ001>005-009-010-012>017-141100-
NORTHWEST AND NORTH CENTRAL SOUTH DAKOTA

CITY           SKY/WX    TMP DP  RH WIND       PRES   REMARKS
BUFFALO          N/A     30  26  85 W14       29.75F WCI  19
FAITH            N/A     34  28  79 NW23      29.79S WCI  22
MOBRIDGE       CLOUDY    20  18  92 S7        29.76F FOG     WCI  11
$$

SDZ012>016-024>037-041>051-057-063-072>074-141100-
SOUTHWEST AND SOUTH CENTRAL SOUTH DAKOTA

CITY           SKY/WX    TMP DP  RH WIND       PRES   REMARKS
RAPID CTY ARPT CLEAR     36  26  67 W12       29.86S
PIERRE         LGT SNOW  24  23  96 SE3       29.79F FOG
CUSTER         CLEAR     29  19  66 W12G23    29.87S WCI  19
ELLSWORTH AFB  CLEAR     35  26  71 W12       29.85S WCI  27
PHILIP         CLEAR     36  31  82 W16       29.84R
PINE RIDGE     CLEAR     32  26  78 W6        29.93F WCI  26
SPEARFISH      FAIR      36  25  64 W16G24    29.87F
WINNER         CLOUDY    38  32  79 NW14      29.79F
$$

SDZ004>011-016>023-039-040-141100-
NORTHEAST SOUTH DAKOTA

CITY           SKY/WX    TMP DP  RH WIND       PRES   REMARKS
ABERDEEN       LGT SNOW  16  11  80 S17G31    29.86F WCI   0
WATERTOWN      LGT SNOW  12   7  80 S18       29.87F VSB 3/4 WCI  -6
BROOKINGS      LGT SNOW  11   7  84 S23       29.89F FOG     WCI  -9
SISSETON         N/A     12   9  87 S15       29.92F WCI  -4
$$

SDZ017-020-022-023-036>040-048>070-141100-
SOUTHEAST SOUTH DAKOTA

CITY           SKY/WX    TMP DP  RH WIND       PRES   REMARKS
SIOUX FALLS    LGT SNOW  14   9  80 SE15G22   29.92F WCI  -1
HURON          CLOUDY    14  11  87 SE13      29.87F WCI   0
CHAMBERLAIN    CLOUDY    20  18  91 SE7       29.81S WCI  11
MITCHELL       LGT SNOW  16  12  84 SE16      29.88F FOG     WCI   1
YANKTON        CLOUDY    16  10  79 SE16G23   29.89F WCI   0
$$

ABBREVIATIONS USED IN REMARKS
   TC - TEMPERATURE IN CELSIUS
  WCI - WIND CHILL INDEX
   HX - HEAT INDEX
  VSB - VISIBILITY





USA.gov is the U.S. government's official web portal to all federal, state and local government web resources and services.